Flag for U.S.A. Weather past 2 weeks in Anchorage, Alaska, U.S.A.

Now
19 °F

Light snow. Passing clouds.


Feels Like: 7 °F
Forecast: 7 / 16 °F
Wind: 10 mph from Northeast

Location: Lake Hood Seaplane

Current Time: Jan 30, 2015 at 1:55:10 AM

Latest Report: Jan 30, 2015 at 12:53 AM


Visibility: 9 mi

Pressure: 30.31 "Hg

Humidity: 77%

Dew point: 13 °F

Location of AnchorageLocation

Historic Weather in Anchorage — Graph

°F

Anchorage temperature yesterday

Maximum temperature yesterday: 20 °F (at 7:53 PM)
Minimum temperature yesterday: 7 °F (at 12:53 AM)
Average temperature yesterday: 13 °F

Past Weeks' High & Low Weather Summary

 TemperatureHumidityPressure
High42 °F (Jan 15, 3:53 PM)89% (Jan 19, 1:53 AM)30.31 "Hg (Jan 19, 1:53 AM)
Low-3 °F (Jan 26, 6:53 AM)40% (Jan 24, 8:53 PM)28.79 "Hg (Jan 15, 3:53 PM)
Average18 °F73%29.57 "Hg
* Reported Jan 15 12:53 AM — Jan 30 12:53 AM, Anchorage, Weather by CustomWeather, © 2014

Note: Actual official high and low records may vary slightly from our data, if they occured in-between our weather recording intervals... More about our weather records

Advertising

Anchorage weather history for previous 24 hours

 ConditionsComfort  
Time TempWeatherWind HumidityBarometerVisibility
12:53 AM
Jan 30
19 °FLight snow. Passing clouds.10 mph77%30.31 "Hg9 mi
11:53 PM
Jan 29
19 °FLight snow. Overcast.8 mph81%30.29 "Hg2 mi
10:53 PM20 °FLight snow. Overcast.9 mph78%30.27 "Hg1 mi
9:53 PM20 °FLight snow. Overcast.3 mph74%30.25 "Hg2 mi
8:53 PM19 °FLight snow. Overcast.6 mph74%30.22 "Hg1 mi
7:53 PM20 °FLight snow. Overcast.3 mph60%30.20 "Hg7 mi
6:53 PM19 °FOvercast.5 mph57%30.18 "Hg10 mi
5:53 PM18 °FOvercast.5 mph59%30.16 "Hg10 mi
4:53 PM18 °FMostly cloudy.5 mph57%30.14 "Hg10 mi
3:53 PM18 °FOvercast.7 mph57%30.12 "Hg10 mi
2:53 PM16 °FOvercast.8 mph62%30.11 "Hg10 mi
1:53 PM13 °FScattered clouds.6 mph64%30.11 "Hg10 mi
12:53 PM12 °FSunny.6 mph64%30.10 "Hg10 mi
11:53 AM12 °FCloudy.5 mph67%30.10 "Hg10 mi
10:53 AM10 °FPartly sunny.6 mph69%30.09 "Hg10 mi
9:53 AM8 °FSunny.5 mph72%30.07 "Hg10 mi
8:53 AM7 °FClear.3 mph76%30.05 "Hg10 mi
7:53 AM8 °FClear.3 mph69%30.04 "Hg10 mi
6:53 AM7 °FClear.5 mph73%30.03 "Hg10 mi
5:53 AM7 °FClear.5 mph76%30.02 "Hg10 mi
4:53 AM9 °FClear.5 mph70%30.01 "Hg10 mi
3:53 AM8 °FClear.5 mph72%30.01 "Hg10 mi
2:53 AM9 °FClear.5 mph70%30.01 "Hg10 mi
1:53 AM8 °FClear.6 mph72%30.01 "Hg10 mi
Weather by CustomWeather, © 2014

See weather overviewHow to use our weather pages